Regional Weather Roundup
Issued by NWS

Home | Current Version | Previous Version | Graphics & Text | Print | Product List | Glossary On
Versions: 1 2 3 4 5 6 7 8 9 10 11 12 13 14 15 16 17 18 19 20 21 22 23 24 25 26 27 28 29 30 31 32 33 34 35 36 37 38 39 40 41 42 43 44 45 46 47 48 49 50
000
ASUS43 KLOT 261810
RWRIL

ILLINOIS REGIONAL WEATHER ROUNDUP
NATIONAL WEATHER SERVICE CHICAGO/ROMEOVILLE IL
1200 PM CST MON JAN 26 2015

NOTE: "FAIR" INDICATES FEW OR NO CLOUDS BELOW 12,000 FEET WITH NO
SIGNIFICANT WEATHER AND/OR OBSTRUCTIONS TO VISIBILITY.

* THESE STATIONS ARE NOT UNDER NWS QUALITY CONTROL. THEY ALSO MAY NOT
  REPORT WEATHER SUCH AS PRECIPITATION OR FOG.

ILZ001-002-007-009-015-016-024-261900-
NORTHWEST ILLINOIS

CITY           SKY/WX    TMP DP  RH WIND       PRES   REMARKS
MOLINE         CLOUDY    26  22  84 S7        29.86F WCI  18
6HR MIN TEMP:  18; 6HR MAX TEMP:  26; 6HR PCP:  0.07;

STERLING*      CLOUDY    23  18  80 S6        29.88F WCI  16
SAVANNA*       CLOUDY    24  20  83 S10       29.86F WCI  13
$$

ILZ003-004-008-010-011-017-018-261900-
NORTH CENTRAL ILLINOIS

CITY           SKY/WX    TMP DP  RH WIND       PRES   REMARKS
ROCKFORD       FLURRIES  23  18  81 S9        29.89F WCI  13
6HR MIN TEMP:  15; 6HR MAX TEMP:  23; 6HR PCP:  0.01;

FREEPORT*      LGT SNOW  21  18  88 S8        29.87F WCI  12
ROCHELLE*      LGT SNOW  22  19  88 CALM      29.89F
DE KALB*       LGT SNOW  22  18  83 E9        29.88F WCI  12
PERU*          SNOW      24  21  88 S7        29.92F VSB 1/2 WCI  16
$$

ILZ005-006-012>014-019>023-261900-
NORTHEAST ILLINOIS

CITY           SKY/WX    TMP DP  RH WIND       PRES   REMARKS
CHICAGO-OHARE  CLOUDY    25  16  68 SW5       29.90F WCI  19
6HR MIN TEMP:  15; 6HR MAX TEMP:  25;

CHICAGO-MIDWAY CLOUDY    27  19  72 S6        29.91F WCI  20
6HR MIN TEMP:  21; 6HR MAX TEMP:  27;

AURORA         CLOUDY    25  17  72 S7        29.91F WCI  17
6HR MIN TEMP:  14; 6HR MAX TEMP:  25;

LANSING*       PTSUNNY   25  18  74 SW7       29.92F WCI  18
JOLIET*        CLOUDY    26  19  76 SW8       29.92F WCI  17
WAUKEGAN       CLOUDY    26  16  65 VRB6      29.89F WCI  19
6HR MIN TEMP:  13; 6HR MAX TEMP:  26;

DUPAGE AIRPORT CLOUDY    25  17  72 S7        29.89F WCI  17
6HR MIN TEMP:  13; 6HR MAX TEMP:  25;

KANKAKEE*      CLOUDY    26  22  82 SW7       29.93F WCI  19
WHEELING       CLOUDY    26  16  65 S5        29.91F WCI  20
6HR MIN TEMP:  15; 6HR MAX TEMP:  26;

MORRIS*        CLOUDY    25  21  82 S3        29.92F
ROMEOVILLE*    CLOUDY    26  19  75 SW6       29.91F WCI  19
NORTHERLY ISL    N/A     26  18  71 S3          N/A
$$

LMZ740>746-261900-
SOUTHERN LAKE MICHIGAN

STATION/POSITION SKY/WX   TEMP    WIND        PRES    VSBY  WAVE
                          AIR SEA DIR/SP/G                  HT/PER
                          (F)     (DEG/KT/KT) (MB)    (MI)  (FT/S)
WAUKEGAN HARBOR            26     170/  5/  8   N/A
HARRISON CRIB              24     170/  7/ 10   N/A
BURNHAM HARBOR             26     210/  3/  7   N/A
CALUMET HARBOR             26     230/  5/  8   N/A
MICHIGAN CITY              22     240/  1/  3   N/A
$$

ILZ025>027-034>036-040-047-049-050-058-095>099-261900-
WEST-CENTRAL ILLINOIS

CITY           SKY/WX    TMP DP  RH WIND       PRES   REMARKS
QUINCY         CLOUDY    32  28  85 S9        29.90S WCI  24
GALESBURG*     LGT SNOW  26  24  91 S8        29.87F WCI  18
MACOMB*        CLOUDY    29  28  94 S13       29.90F WCI  19
JACKSONVILLE*  CLOUDY    32  28  86 S6        29.95R WCI  26
PITTSFIELD*    CLOUDY    33  28  84 S6        29.95R WCI  27
$$

ILZ028>032-037-038-041>044-048-051>054-059>061-261900-
CENTRAL ILLINOIS

CITY           SKY/WX    TMP DP  RH WIND       PRES   REMARKS
PONTIAC        CLOUDY    28  22  81 SW7       29.93F WCI  20
BLOOMINGTON    LGT SNOW  25  22  88 SW8       29.93F FOG     WCI  16
DECATUR        CLOUDY    28  25  88 W5        29.95F WCI  23
PEORIA         LGT SNOW  25  21  85 SW7       29.93F FOG     WCI  17
6HR MIN TEMP:  20; 6HR MAX TEMP:  25; 6HR PCP:  0.04;

LACON*         LGT SNOW  24  20  86 S5        29.91F WCI  18
LINCOLN*       LGT SNOW  29  23  79 CALM      29.96F VSB 1
SPRINGFIELD    HVY SNOW  28  25  88 SW6       29.97R VSB 1/4 WCI  22
6HR MIN TEMP:  21; 6HR MAX TEMP:  28; 6HR PCP:  0.01;

TAYLORVILLE    CLOUDY    28  23  80 SW6       29.96F WCI  22
$$

ILZ033-039-045-046-055>057-062-063-261900-
EAST-CENTRAL ILLINOIS

CITY           SKY/WX    TMP DP  RH WIND       PRES   REMARKS
CHAMPAIGN      CLOUDY    27  21  78 W7        29.93F WCI  19
DANVILLE*      CLOUDY    26  20  77 W3        29.91F
RANTOUL*       CLOUDY    29  23  79 W6        29.93F WCI  23
MATTOON        CLOUDY    27  20  75 W8        29.94S WCI  19
PARIS*         CLOUDY    28  23  82 NE6       29.95F WCI  22
$$

ILZ079-100>102-261900-
SOUTHWEST ILLINOIS

CITY           SKY/WX    TMP DP  RH WIND       PRES   REMARKS
ALTON          CLOUDY    30  25  80 S10       29.96F WCI  21
BELLEVILLE     CLOUDY    32  27  81 S5        29.97F WCI  28
CAHOKIA*       CLOUDY    34  26  72 SW7       29.99F WCI  28
SPARTA*        CLOUDY    33  25  73 W9        30.00F WCI  25
$$

ILZ064>066-069>071-074>076-080>082-084>086-088>090-092>094-261900-
SOUTH-CENTRAL ILLINOIS

CITY           SKY/WX    TMP DP  RH WIND       PRES   REMARKS
CARBONDALE     CLOUDY    33  23  66 W8        30.03F WCI  26
6HR MIN TEMP:  26; 6HR MAX TEMP:  33;

CAIRO*         CLOUDY    37  29  71 W8        30.06F WCI  31
EFFINGHAM*     CLOUDY    29  18  63 SW5       29.98F WCI  24
MARION         CLOUDY    32  25  74 NW12      30.03F WCI  23
MT. VERNON     CLOUDY    30  19  64 W7        30.00F WCI  23
CENTRALIA*     CLOUDY    31  23  74 SW6       29.98F WCI  25
SALEM*         CLOUDY    32  25  74 SW5       29.98F WCI  27
METROPOLIS*    CLOUDY    37  29  71 W8        30.03F WCI  31
$$

ILZ067-068-072-073-078-083-087-091-261900-
SOUTHEAST ILLINOIS

CITY           SKY/WX    TMP DP  RH WIND       PRES   REMARKS
LAWRENCEVILLE  CLOUDY    29  24  82 W10       29.99F WCI  20
FLORA*         CLOUDY    29  21  71 SW7       29.98F WCI  22
FAIRFIELD*     CLOUDY    31  21  67 W6        29.99F WCI  25
HARRISBURG*    PTSUNNY   32  24  73 W10       30.03F WCI  24
ROBINSON*      CLOUDY    29  25  83 W8        30.00F WCI  21
CARMI*         CLOUDY    32  27  80 W12       30.01F WCI  23
$$

ABBREVIATIONS USED IN REMARKS
   TC - TEMPERATURE IN CELSIUS
  WCI - WIND CHILL INDEX
   HX - HEAT INDEX
  VSB - VISIBILITY
$$




USA.gov is the U.S. government's official web portal to all federal, state and local government web resources and services.